EN

Hourly Weather Abay (Tyulkubasskiy rayon)

Today, 12 June, Saturday

Time Temperature Precipitation Wind Pressure Humidity
00:00 +21°C° 0 mm 4 mps 701 mmHg 38%
01:00 +21°C° 0 mm 4 mps 701 mmHg 40%
02:00 +20°C° 0 mm 3 mps 701 mmHg 42%
03:00 +20°C° 0 mm 3 mps 701 mmHg 43%
04:00 +20°C° 0 mm 3 mps 701 mmHg 43%
05:00 +19°C° 0 mm 3 mps 701 mmHg 44%
06:00 +22°C° 0 mm 3 mps 701 mmHg 40%
07:00 +25°C° 0 mm 4 mps 702 mmHg 36%
08:00 +28°C° 0 mm 4 mps 702 mmHg 32%
09:00 +29°C° 0 mm 4 mps 702 mmHg 29%
10:00 +32°C° 0 mm 5 mps 702 mmHg 27%
11:00 +33°C° 0 mm 6 mps 702 mmHg 23%
12:00 +34°C° 0 mm 6 mps 702 mmHg 23%
13:00 +34°C° 0 mm 6 mps 702 mmHg 22%
14:00 +34°C° 0 mm 6 mps 702 mmHg 22%
15:00 +33°C° 0 mm 7 mps 702 mmHg 23%
16:00 +33°C° 0 mm 8 mps 702 mmHg 24%
17:00 +32°C° 0 mm 9 mps 702 mmHg 25%
18:00 +31°C° 0 mm 9 mps 702 mmHg 26%
19:00 +28°C° 0 mm 9 mps 702 mmHg 26%
20:00 +27°C° 0 mm 9 mps 702 mmHg 27%
21:00 +26°C° 0 mm 9 mps 702 mmHg 28%
22:00 +24°C° 0 mm 8 mps 702 mmHg 29%
23:00 +23°C° 0 mm 7 mps 702 mmHg 30%

Tomorrow, 13 June, Sunday

Time Temperature Precipitation Wind Pressure Humidity
00:00 +21°C° 0 mm 6 mps 702 mmHg 34%
01:00 +20°C° 0 mm 5 mps 702 mmHg 39%
02:00 +18°C° 0 mm 4 mps 702 mmHg 43%
03:00 +18°C° 0 mm 4 mps 702 mmHg 44%
04:00 +18°C° 0 mm 4 mps 703 mmHg 45%
05:00 +17°C° 0 mm 4 mps 703 mmHg 46%
06:00 +20°C° 0 mm 5 mps 703 mmHg 42%
07:00 +22°C° 0 mm 6 mps 703 mmHg 37%
08:00 +26°C° 0 mm 7 mps 704 mmHg 32%
09:00 +27°C° 0 mm 8 mps 704 mmHg 29%
10:00 +28°C° 0 mm 9 mps 704 mmHg 26%
11:00 +29°C° 0 mm 9 mps 705 mmHg 22%
12:00 +31°C° 0 mm 9 mps 704 mmHg 20%
13:00 +31°C° 0 mm 9 mps 704 mmHg 18%
14:00 +32°C° 0 mm 9 mps 704 mmHg 16%
15:00 +32°C° 0 mm 9 mps 704 mmHg 15%
16:00 +31°C° 0 mm 10 mps 704 mmHg 14%
17:00 +31°C° 0 mm 11 mps 704 mmHg 13%
18:00 +28°C° 0 mm 11 mps 704 mmHg 14%
19:00 +26°C° 0 mm 11 mps 704 mmHg 14%
20:00 +23°C° 0 mm 11 mps 703 mmHg 15%
21:00 +22°C° 0 mm 11 mps 703 mmHg 19%
22:00 +21°C° 0 mm 11 mps 703 mmHg 22%
23:00 +18°C° 0 mm 11 mps 703 mmHg 25%

Day after tomorrow, 14 June, Monday

Time Temperature Precipitation Wind Pressure Humidity
00:00 +17°C° 0 mm 10 mps 703 mmHg 28%
01:00 +16°C° 0 mm 9 mps 702 mmHg 30%
02:00 +15°C° 0 mm 8 mps 702 mmHg 33%
03:00 +15°C° 0 mm 7 mps 702 mmHg 33%
04:00 +15°C° 0 mm 7 mps 702 mmHg 33%
05:00 +15°C° 0 mm 7 mps 702 mmHg 33%
06:00 +16°C° 0 mm 8 mps 702 mmHg 30%
07:00 +18°C° 0 mm 8 mps 702 mmHg 27%
08:00 +21°C° 0 mm 8 mps 703 mmHg 24%
09:00 +23°C° 0 mm 9 mps 703 mmHg 22%
10:00 +24°C° 0 mm 10 mps 703 mmHg 20%
11:00 +27°C° 0 mm 11 mps 703 mmHg 18%
12:00 +28°C° 0 mm 11 mps 703 mmHg 16%
13:00 +29°C° 0 mm 11 mps 703 mmHg 15%
14:00 +31°C° 0 mm 11 mps 703 mmHg 13%
15:00 +29°C° 0 mm 12 mps 703 mmHg 13%
16:00 +29°C° 0 mm 12 mps 702 mmHg 13%
17:00 +29°C° 0 mm 12 mps 702 mmHg 13%
18:00 +27°C° 0 mm 12 mps 702 mmHg 14%
19:00 +24°C° 0 mm 12 mps 702 mmHg 16%
20:00 +23°C° 0 mm 12 mps 702 mmHg 18%
21:00 +22°C° 0 mm 12 mps 702 mmHg 20%
22:00 +21°C° 0 mm 12 mps 702 mmHg 22%
23:00 +19°C° 0 mm 12 mps 702 mmHg 24%

15 June, Tuesday

Time Temperature Precipitation Wind Pressure Humidity
00:00 +18°C° 0 mm 11 mps 702 mmHg 25%
01:00 +18°C° 0 mm 10 mps 701 mmHg 27%
02:00 +17°C° 0 mm 10 mps 701 mmHg 28%
03:00 +16°C° 0 mm 9 mps 701 mmHg 30%
04:00 +16°C° 0 mm 8 mps 701 mmHg 32%
05:00 +15°C° 0 mm 7 mps 701 mmHg 33%
06:00 +17°C° 0 mm 7 mps 702 mmHg 30%
07:00 +20°C° 0 mm 8 mps 702 mmHg 27%
08:00 +22°C° 0 mm 8 mps 703 mmHg 24%
09:00 +24°C° 0 mm 9 mps 703 mmHg 22%
10:00 +26°C° 0 mm 9 mps 703 mmHg 20%
11:00 +28°C° 0 mm 10 mps 703 mmHg 18%
12:00 +29°C° 0 mm 10 mps 703 mmHg 16%
13:00 +31°C° 0 mm 10 mps 703 mmHg 15%
14:00 +32°C° 0 mm 10 mps 703 mmHg 13%
15:00 +32°C° 0 mm 10 mps 703 mmHg 13%
16:00 +32°C° 0 mm 11 mps 702 mmHg 14%
17:00 +31°C° 0 mm 11 mps 702 mmHg 14%
18:00 +29°C° 0 mm 10 mps 702 mmHg 17%
19:00 +27°C° 0 mm 10 mps 702 mmHg 19%
20:00 +24°C° 0 mm 9 mps 702 mmHg 22%
21:00 +23°C° 0 mm 9 mps 702 mmHg 25%
22:00 +22°C° 0 mm 9 mps 701 mmHg 28%
23:00 +21°C° 0 mm 8 mps 701 mmHg 31%

16 June, Wednesday

Time Temperature Precipitation Wind Pressure Humidity
00:00 +20°C° 0 mm 7 mps 701 mmHg 34%
01:00 +19°C° 0 mm 6 mps 701 mmHg 37%
02:00 +17°C° 0 mm 5 mps 701 mmHg 40%
03:00 +17°C° 0 mm 5 mps 701 mmHg 41%
04:00 +16°C° 0 mm 5 mps 701 mmHg 41%
05:00 +15°C° 0 mm 4 mps 701 mmHg 42%
06:00 +19°C° 0 mm 5 mps 701 mmHg 35%
07:00 +23°C° 0 mm 6 mps 702 mmHg 29%
08:00 +27°C° 0 mm 7 mps 702 mmHg 23%
09:00 +28°C° 0 mm 7 mps 702 mmHg 21%
10:00 +29°C° 0 mm 8 mps 702 mmHg 20%
11:00 +32°C° 0 mm 8 mps 702 mmHg 18%
12:00 +33°C° 0 mm 8 mps 702 mmHg 17%
13:00 +34°C° 0 mm 7 mps 702 mmHg 15%
14:00 +34°C° 0 mm 7 mps 702 mmHg 14%
15:00 +34°C° 0 mm 8 mps 702 mmHg 15%
16:00 +34°C° 0 mm 8 mps 702 mmHg 15%
17:00 +34°C° 0 mm 9 mps 702 mmHg 15%
18:00 +32°C° 0 mm 8 mps 702 mmHg 17%
19:00 +29°C° 0 mm 8 mps 702 mmHg 18%
20:00 +27°C° 0 mm 8 mps 702 mmHg 20%
21:00 +26°C° 0 mm 8 mps 703 mmHg 22%
22:00 +24°C° 0 mm 7 mps 703 mmHg 24%
23:00 +22°C° 0 mm 7 mps 703 mmHg 27%

17 June, Thursday

Time Temperature Precipitation Wind Pressure Humidity
00:00 +21°C° 0 mm 6 mps 702 mmHg 29%
01:00 +20°C° 0 mm 5 mps 702 mmHg 31%
02:00 +19°C° 0 mm 4 mps 702 mmHg 32%
03:00 +18°C° 0 mm 4 mps 702 mmHg 33%
04:00 +18°C° 0 mm 4 mps 702 mmHg 33%
05:00 +18°C° 0 mm 4 mps 702 mmHg 34%
06:00 +21°C° 0 mm 4 mps 702 mmHg 29%
07:00 +25°C° 0 mm 5 mps 703 mmHg 25%
08:00 +28°C° 0 mm 5 mps 703 mmHg 21%
09:00 +29°C° 0 mm 5 mps 703 mmHg 19%
10:00 +32°C° 0 mm 6 mps 703 mmHg 18%
11:00 +34°C° 0 mm 6 mps 703 mmHg 16%
12:00 +35°C° 0 mm 6 mps 703 mmHg 15%
13:00 +35°C° 0 mm 5 mps 703 mmHg 13%
14:00 +36°C° 0 mm 5 mps 703 mmHg 12%
15:00 +36°C° 0 mm 6 mps 703 mmHg 12%
16:00 +36°C° 0 mm 6 mps 703 mmHg 12%
17:00 +35°C° 0 mm 6 mps 703 mmHg 11%
18:00 +33°C° 0 mm 6 mps 703 mmHg 13%
19:00 +29°C° 0 mm 6 mps 703 mmHg 14%
20:00 +27°C° 0 mm 5 mps 703 mmHg 15%
21:00 +26°C° 0 mm 5 mps 703 mmHg 16%
22:00 +25°C° 0 mm 5 mps 702 mmHg 16%
23:00 +23°C° 0 mm 5 mps 702 mmHg 17%
Show more